map of GYY home
GYY - Airport
Location
City:  Gary, Indiana, United States
Name:Gary/Chicago International Airport
ICAO:KGYY
IATA:GYY
FAA LID:GYY

Details
Type:Airport (Part 139 Class I)
Use:Public/Civil
Latitude:4137'02"N (41.617250)
Longitude:8724'52"W (-87.414527)
Datum:WGS 1984
Elevation:596 ft (182 m)
Variation:4.10W (WMM2015 magnetic declination)
-0.06 annual change
Runways:2
Longest:8859 × 150 ft (2700 × 45.5 m), paved

Time
Time Zone:UTC-6 (DST-5)
Local Time:

Weather
METAR:KGYY 180045Z 04007KT 15SM FEW250 23/14 A3009
TAF:KGYY 172322Z 1800/1824 03008KT P6SM FEW250
FM181500 04009KT P6SM FEW250

Related Locations
Nearby:
Farthest:YAUG: 11115 mi / 17888 km
Augusta [Augusta Airport], WA, AU

Find:

   beyond  
but within

Other Information
Maps:
NOTAMs:
Links:
Sources:

  
  • flag of United States
  • flag of Indiana
  

Airport Diagram

Airport diagram for GYY

Airport diagram PDF

Sectional Chart

Flight Planning
at skyvector.com

Satellite Image

Google Maps Satellite view

 

Copyright © 2004-2018 Karl L. Swartz. All rights reserved.
The Great Circle Mapper name and logo are trademarks of the Great Circle Mapper.
All other trademarks mentioned herein belong to their respective owners.
Please see credits for attibutions and further copyright information.

  Follow gcmap on Facebook Follow gcmap on Twitter Follow gcmap on Google+ GCmap on LinkedIn

hCard Microformat

Geo Microformat